Location: Gombori
(14.9797°N, 2.9419°W)
Time: 21:22:44
(UTC+00:00)

METEOR 2-17 DEB - Pass Details

Date: 01 June 2022
Orbit: 896 x 935 km, 82.5° (Epoch: 02 July)

Event Time Altitude Azimuth Distance (km) Brightness Sun altitude
Rises 20:22:08 0° 22° (NNE) 3,504 ? -23.0°
Reaches altitude 10° 20:25:29 10° 42° (NE) 2,562 ? -23.7°
Enters shadow 20:26:41 13° 52° (NE) 2,318 ? -24.0°
